START_TIME,STEP,MOV.,P11,t_acc.,P23,t_acc.,P27,t_acc.,A4,t_acc.
1979-07-21 15:00:22.790 ,1,0,1.,4.8,0.,4.8,0.,4.8,0.,4.8
1979-07-21 15:00:27.590 ,1,0,1.,4.8,0.,4.8,1.,4.8,0.,4.8
1979-07-21 15:00:32.390 ,1,0,1.,4.8,0.,4.8,0.,4.8,0.,4.8
1979-07-21 15:00:37.190 ,1,0,0.,4.8,0.,4.8,0.,4.8,0.,4.8
1979-07-21 15:00:41.990 ,1,0,0.,4.8,0.,4.8,0.,4.8,0.,4.8
1979-07-21 15:00:46.790 ,2,0,0.,4.8,0.,4.8,0.,4.8,0.,4.8
1979-07-21 15:00:51.590 ,2,0,1.,4.8,0.,4.8,0.,4.8,0.,4.8
1979-07-21 15:00:56.390 ,2,0,1.,4.8,0.,4.8,0.,4.8,0.,4.8
1979-07-21 15:01:01.190 ,2,0,0.,4.8,0.,4.8,0.,4.8,0.,4.8
1979-07-21 15:01:05.990 ,2,0,0.,4.8,0.,4.8,0.,4.8,0.,4.8
1979-07-21 15:01:10.790 ,2,0,0.,4.8,0.,4.8,0.,4.8,0.,4.8
1979-07-21 15:01:15.590 ,2,0,1.,4.8,0.,4.8,0.,4.8,0.,4.8
1979-07-21 15:01:20.390 ,2,0,0.,4.8,0.,4.8,0.,4.8,0.,4.8
1979-07-21 15:01:25.190 ,2,0,0.,4.8,0.,4.8,0.,4.8,0.,4.8
1979-07-21 15:01:29.990 ,2,0,1.,4.8,0.,4.8,0.,4.8,0.,4.8
1979-07-21 15:01:34.790 ,3,0,0.,4.8,0.,4.8,0.,4.8,0.,4.8
1979-07-21 15:01:39.590 ,3,0,2.,4.8,0.,4.8,0.,4.8,0.,4.8
1979-07-21 15:01:44.390 ,3,0,0.,4.8,0.,4.8,0.,4.8,0.,4.8
1979-07-21 15:01:49.190 ,3,0,2.,4.8,0.,4.8,0.,4.8,0.,4.8
1979-07-21 15:01:53.990 ,3,0,1.,4.8,0.,4.8,0.,4.8,0.,4.8
1979-07-21 15:01:58.790 ,3,0,0.,4.8,0.,4.8,1.,4.8,0.,4.8
1979-07-21 15:02:03.590 ,3,0,0.,4.8,0.,4.8,0.,4.8,0.,4.8
1979-07-21 15:02:08.390 ,3,0,0.,4.8,0.,4.8,0.,4.8,0.,4.8
1979-07-21 15:02:13.190 ,3,0,0.,4.8,0.,4.8,0.,4.8,0.,4.8
1979-07-21 15:02:17.990 ,3,0,0.,4.8,1.,4.8,0.,4.8,0.,4.8
1979-07-21 15:02:22.790 ,4,0,0.,4.8,0.,4.8,0.,4.8,0.,4.8
1979-07-21 15:02:27.590 ,4,0,0.,4.8,0.,4.8,0.,4.8,0.,4.8
1979-07-21 15:02:32.390 ,4,0,0.,4.8,0.,4.8,1.,4.8,0.,4.8
1979-07-21 15:02:37.190 ,4,0,1.,4.8,0.,4.8,0.,4.8,0.,4.8
1979-07-21 15:02:41.990 ,4,0,0.,4.8,0.,4.8,0.,4.8,0.,4.8
1979-07-21 15:02:46.790 ,4,0,0.,4.8,0.,4.8,0.,4.8,0.,4.8
1979-07-21 15:02:51.590 ,4,0,0.,4.8,0.,4.8,0.,4.8,0.,4.8
1979-07-21 15:02:56.390 ,4,0,0.,4.8,0.,4.8,0.,4.8,0.,4.8
1979-07-21 15:03:01.190 ,4,0,2.,4.8,0.,4.8,0.,4.8,0.,4.8
1979-07-21 15:03:05.990 ,4,0,0.,4.8,0.,4.8,2.,4.8,0.,4.8
1979-07-21 15:03:10.790 ,5,0,1.,4.8,0.,4.8,0.,4.8,0.,4.8
1979-07-21 15:03:15.590 ,5,0,0.,4.8,0.,4.8,0.,4.8,0.,4.8
1979-07-21 15:03:20.390 ,5,0,1.,4.8,0.,4.8,0.,4.8,0.,4.8
1979-07-21 15:03:25.190 ,5,0,0.,4.8,0.,4.8,0.,4.8,0.,4.8
1979-07-21 15:03:29.990 ,5,0,0.,4.8,0.,4.8,0.,4.8,0.,4.8
1979-07-21 15:03:34.790 ,5,0,0.,4.8,0.,4.8,0.,4.8,0.,4.8
1979-07-21 15:03:39.590 ,5,0,1.,4.8,0.,4.8,0.,4.8,0.,4.8
1979-07-21 15:03:44.390 ,5,0,0.,4.8,0.,4.8,0.,4.8,0.,4.8
1979-07-21 15:03:49.190 ,5,0,0.,4.8,1.,4.8,0.,4.8,0.,4.8
1979-07-21 15:03:53.990 ,5,0,0.,4.8,0.,4.8,1.,4.8,0.,4.8
1979-07-21 15:03:58.790 ,6,0,0.,4.8,0.,4.8,0.,4.8,0.,4.8
1979-07-21 15:04:03.590 ,6,0,0.,4.8,0.,4.8,0.,4.8,0.,4.8
1979-07-21 15:04:08.390 ,6,0,0.,4.8,0.,4.8,0.,4.8,0.,4.8
1979-07-21 15:04:13.190 ,6,0,2.,4.8,0.,4.8,0.,4.8,0.,4.8
1979-07-21 15:04:17.990 ,6,0,0.,4.8,0.,4.8,0.,4.8,0.,4.8
1979-07-21 15:04:22.790 ,6,0,0.,4.8,0.,4.8,0.,4.8,0.,4.8
1979-07-21 15:04:27.590 ,6,0,0.,4.8,0.,4.8,0.,4.8,0.,4.8
1979-07-21 15:04:32.390 ,6,0,0.,4.8,0.,4.8,0.,4.8,0.,4.8
1979-07-21 15:04:37.190 ,6,0,0.,4.8,0.,4.8,0.,4.8,0.,4.8
1979-07-21 15:04:41.990 ,6,0,0.,4.8,0.,4.8,0.,4.8,0.,4.8
1979-07-21 15:04:46.790 ,7,0,0.,4.8,0.,4.8,0.,4.8,0.,4.8
1979-07-21 15:04:51.590 ,7,0,0.,4.8,0.,4.8,0.,4.8,0.,4.8
1979-07-21 15:04:56.390 ,7,0,1.,4.8,0.,4.8,0.,4.8,0.,4.8
1979-07-21 15:05:01.190 ,7,0,0.,4.8,0.,4.8,0.,4.8,0.,4.8
1979-07-21 15:05:05.990 ,7,0,0.,4.8,0.,4.8,0.,4.8,0.,4.8
1979-07-21 15:05:10.790 ,7,0,0.,4.8,0.,4.8,0.,4.8,0.,4.8
1979-07-21 15:05:15.590 ,7,0,0.,4.8,0.,4.8,0.,4.8,0.,4.8
1979-07-21 15:05:20.390 ,7,0,0.,4.8,0.,4.8,0.,4.8,0.,4.8
1979-07-21 15:05:25.190 ,7,0,0.,4.8,0.,4.8,0.,4.8,0.,4.8
1979-07-21 15:05:29.990 ,7,0,0.,4.8,0.,4.8,0.,4.8,0.,4.8
1979-07-21 15:05:34.790 ,7,0,0.,4.8,1.,4.8,0.,4.8,0.,4.8
1979-07-21 15:05:39.590 ,7,0,0.,4.8,0.,4.8,0.,4.8,0.,4.8
1979-07-21 15:05:44.390 ,7,0,1.,4.8,0.,4.8,0.,4.8,0.,4.8
1979-07-21 15:05:49.190 ,7,0,0.,4.8,0.,4.8,0.,4.8,0.,4.8
1979-07-21 15:05:53.990 ,7,0,0.,4.8,0.,4.8,0.,4.8,0.,4.8
1979-07-21 15:05:58.790 ,7,0,0.,4.8,0.,4.8,0.,4.8,0.,4.8
1979-07-21 15:06:03.590 ,7,0,1.,4.8,0.,4.8,0.,4.8,0.,4.8
1979-07-21 15:06:08.390 ,7,0,0.,4.8,0.,4.8,0.,4.8,0.,4.8
1979-07-21 15:06:13.190 ,7,0,0.,4.8,0.,4.8,0.,4.8,0.,4.8
1979-07-21 15:06:17.990 ,7,0,0.,4.8,0.,4.8,1.,4.8,0.,4.8
1979-07-21 15:06:22.790 ,6,0,1.,4.8,0.,4.8,1.,4.8,0.,4.8
1979-07-21 15:06:27.590 ,6,0,0.,4.8,0.,4.8,0.,4.8,0.,4.8
1979-07-21 15:06:32.390 ,6,0,0.,4.8,0.,4.8,1.,4.8,0.,4.8
1979-07-21 15:06:37.190 ,6,0,0.,4.8,0.,4.8,0.,4.8,0.,4.8
1979-07-21 15:06:41.990 ,6,0,0.,4.8,0.,4.8,0.,4.8,0.,4.8
1979-07-21 15:06:46.790 ,6,0,0.,4.8,0.,4.8,0.,4.8,0.,4.8
1979-07-21 15:06:51.590 ,6,0,0.,4.8,0.,4.8,2.,4.8,0.,4.8
1979-07-21 15:06:56.390 ,6,0,1.,4.8,0.,4.8,0.,4.8,0.,4.8
1979-07-21 15:07:01.190 ,6,0,1.,4.8,0.,4.8,0.,4.8,0.,4.8
1979-07-21 15:07:05.990 ,6,0,0.,4.8,0.,4.8,0.,4.8,0.,4.8
1979-07-21 15:07:10.790 ,5,0,1.,4.8,0.,4.8,0.,4.8,0.,4.8
1979-07-21 15:07:15.590 ,5,0,0.,4.8,0.,4.8,2.,4.8,0.,4.8
1979-07-21 15:07:20.390 ,5,0,0.,4.8,0.,4.8,0.,4.8,0.,4.8
1979-07-21 15:07:25.190 ,5,0,0.,4.8,0.,4.8,0.,4.8,0.,4.8
1979-07-21 15:07:29.990 ,5,0,0.,4.8,0.,4.8,0.,4.8,0.,4.8
1979-07-21 15:07:34.790 ,5,0,0.,4.8,0.,4.8,0.,4.8,0.,4.8
1979-07-21 15:07:39.590 ,5,0,0.,4.8,0.,4.8,0.,4.8,0.,4.8
1979-07-21 15:07:44.390 ,5,0,0.,4.8,0.,4.8,0.,4.8,0.,4.8
1979-07-21 15:07:49.190 ,5,0,0.,4.8,0.,4.8,0.,4.8,0.,4.8
1979-07-21 15:07:53.990 ,5,0,0.,4.8,0.,4.8,0.,4.8,0.,4.8
1979-07-21 15:07:58.790 ,4,0,0.,4.8,0.,4.8,1.,4.8,0.,4.8
1979-07-21 15:08:03.590 ,4,0,0.,4.8,0.,4.8,0.,4.8,0.,4.8
1979-07-21 15:08:08.390 ,4,0,0.,4.8,0.,4.8,0.,4.8,0.,4.8
1979-07-21 15:08:13.190 ,4,0,0.,4.8,0.,4.8,0.,4.8,0.,4.8
1979-07-21 15:08:17.990 ,4,0,0.,4.8,0.,4.8,0.,4.8,0.,4.8
1979-07-21 15:08:22.790 ,4,0,0.,4.8,0.,4.8,0.,4.8,0.,4.8
1979-07-21 15:08:27.590 ,4,0,1.,4.8,0.,4.8,0.,4.8,0.,4.8
1979-07-21 15:08:32.390 ,4,0,0.,4.8,0.,4.8,1.,4.8,0.,4.8
1979-07-21 15:08:37.190 ,4,0,0.,4.8,0.,4.8,0.,4.8,0.,4.8
1979-07-21 15:08:41.990 ,4,0,0.,4.8,0.,4.8,0.,4.8,0.,4.8
1979-07-21 15:08:46.790 ,3,0,1.,4.8,0.,4.8,0.,4.8,0.,4.8
1979-07-21 15:08:51.590 ,3,0,0.,4.8,0.,4.8,0.,4.8,0.,4.8
1979-07-21 15:08:56.390 ,3,0,0.,4.8,0.,4.8,0.,4.8,0.,4.8
1979-07-21 15:09:01.190 ,3,0,0.,4.8,0.,4.8,0.,4.8,0.,4.8
1979-07-21 15:09:05.990 ,3,0,0.,4.8,0.,4.8,0.,4.8,0.,4.8
1979-07-21 15:09:10.790 ,3,0,0.,4.8,0.,4.8,0.,4.8,0.,4.8
1979-07-21 15:09:15.590 ,3,0,0.,4.8,1.,4.8,0.,4.8,0.,4.8
1979-07-21 15:09:20.390 ,3,0,0.,4.8,0.,4.8,0.,4.8,0.,4.8
1979-07-21 15:09:25.190 ,3,0,2.,4.8,1.,4.8,0.,4.8,0.,4.8
1979-07-21 15:09:29.990 ,3,0,0.,4.8,0.,4.8,0.,4.8,0.,4.8
1979-07-21 15:09:34.790 ,2,0,0.,4.8,0.,4.8,0.,4.8,0.,4.8
1979-07-21 15:09:39.590 ,2,0,0.,4.8,0.,4.8,0.,4.8,0.,4.8
1979-07-21 15:09:44.390 ,2,0,1.,4.8,0.,4.8,2.,4.8,0.,4.8
1979-07-21 15:09:49.190 ,2,0,0.,4.8,0.,4.8,0.,4.8,0.,4.8
1979-07-21 15:09:53.990 ,2,0,0.,4.8,0.,4.8,0.,4.8,0.,4.8
1979-07-21 15:09:58.790 ,2,0,0.,4.8,0.,4.8,0.,4.8,0.,4.8
1979-07-21 15:10:03.590 ,2,0,0.,4.8,0.,4.8,0.,4.8,0.,4.8
1979-07-21 15:10:08.390 ,2,0,0.,4.8,0.,4.8,0.,4.8,0.,4.8
1979-07-21 15:10:13.190 ,2,0,0.,4.8,0.,4.8,0.,4.8,0.,4.8
1979-07-21 15:10:17.990 ,2,0,0.,4.8,0.,4.8,0.,4.8,0.,4.8
1979-07-21 15:10:22.790 ,1,0,1.,4.8,0.,4.8,0.,4.8,0.,4.8
1979-07-21 15:10:27.590 ,1,0,0.,4.8,0.,4.8,0.,4.8,0.,4.8
1979-07-21 15:10:32.390 ,1,0,0.,4.8,0.,4.8,0.,4.8,0.,4.8
1979-07-21 15:10:37.190 ,1,0,0.,4.8,0.,4.8,0.,4.8,0.,4.8
1979-07-21 15:10:41.990 ,1,0,0.,4.8,0.,4.8,0.,4.8,0.,4.8
1979-07-21 15:10:46.790 ,1,0,0.,4.8,0.,4.8,0.,4.8,0.,4.8
1979-07-21 15:10:51.590 ,1,0,0.,4.8,0.,4.8,0.,4.8,0.,4.8
1979-07-21 15:10:56.390 ,1,0,1.,4.8,0.,4.8,0.,4.8,0.,4.8
1979-07-21 15:11:01.190 ,1,0,0.,4.8,0.,4.8,0.,4.8,0.,4.8
1979-07-21 15:11:05.990 ,1,0,0.,4.8,0.,4.8,0.,4.8,0.,4.8
1979-07-21 15:11:10.790 ,0,0,0.,4.8,0.,4.8,0.,4.8,0.,4.8
1979-07-21 15:11:15.590 ,0,0,1.,4.8,0.,4.8,0.,4.8,0.,4.8
1979-07-21 15:11:20.390 ,0,0,0.,4.8,0.,4.8,0.,4.8,0.,4.8
1979-07-21 15:11:25.190 ,0,0,0.,4.8,0.,4.8,0.,4.8,0.,4.8
1979-07-21 15:11:29.990 ,0,0,0.,4.8,0.,4.8,0.,4.8,0.,4.8
1979-07-21 15:11:34.790 ,0,0,0.,4.8,0.,4.8,0.,4.8,0.,4.8
1979-07-21 15:11:39.590 ,0,0,1.,4.8,0.,4.8,0.,4.8,0.,4.8
1979-07-21 15:11:44.390 ,0,0,0.,4.8,0.,4.8,0.,4.8,0.,4.8
1979-07-21 15:11:49.190 ,0,0,1.,4.8,0.,4.8,0.,4.8,0.,4.8
1979-07-21 15:11:53.990 ,0,0,0.,4.8,0.,4.8,0.,4.8,0.,4.8
1979-07-21 15:11:58.790 ,0,0,0.,4.8,0.,4.8,0.,4.8,0.,4.8
1979-07-21 15:12:03.590 ,0,0,0.,4.8,0.,4.8,0.,4.8,0.,4.8
1979-07-21 15:12:08.390 ,0,0,0.,4.8,0.,4.8,0.,4.8,0.,4.8
1979-07-21 15:12:13.190 ,0,0,0.,4.8,0.,4.8,0.,4.8,0.,4.8
1979-07-21 15:12:17.990 ,0,0,0.,4.8,0.,4.8,0.,4.8,0.,4.8
1979-07-21 15:12:22.790 ,0,0,0.,4.8,0.,4.8,0.,4.8,0.,4.8
1979-07-21 15:12:27.590 ,0,0,0.,4.8,0.,4.8,0.,4.8,0.,4.8
1979-07-21 15:12:32.390 ,0,0,1.,4.8,0.,4.8,0.,4.8,0.,4.8
1979-07-21 15:12:37.190 ,0,0,0.,4.8,0.,4.8,0.,4.8,0.,4.8
1979-07-21 15:12:41.990 ,0,0,0.,4.8,0.,4.8,0.,4.8,0.,4.8
1979-07-21 15:12:46.790 ,1,0,1.,4.8,0.,4.8,1.,4.8,0.,4.8
1979-07-21 15:12:51.590 ,1,0,0.,4.8,0.,4.8,0.,4.8,0.,4.8
1979-07-21 15:12:56.390 ,1,0,1.,4.8,0.,4.8,1.,4.8,0.,4.8
1979-07-21 15:13:01.190 ,1,0,0.,4.8,0.,4.8,0.,4.8,0.,4.8
1979-07-21 15:13:05.990 ,1,0,2.,4.8,0.,4.8,0.,4.8,0.,4.8
1979-07-21 15:13:10.790 ,1,0,0.,4.8,0.,4.8,0.,4.8,0.,4.8
1979-07-21 15:13:15.590 ,1,0,0.,4.8,0.,4.8,0.,4.8,0.,4.8
1979-07-21 15:13:20.390 ,1,0,0.,4.8,0.,4.8,1.,4.8,0.,4.8
1979-07-21 15:13:25.190 ,1,0,0.,4.8,0.,4.8,0.,4.8,0.,4.8
1979-07-21 15:13:29.990 ,1,0,0.,4.8,0.,4.8,0.,4.8,0.,4.8
1979-07-21 15:13:34.790 ,2,0,0.,4.8,0.,4.8,0.,4.8,0.,4.8
1979-07-21 15:13:39.590 ,2,0,0.,4.8,0.,4.8,0.,4.8,0.,4.8
1979-07-21 15:13:44.390 ,2,0,0.,4.8,0.,4.8,0.,4.8,0.,4.8
1979-07-21 15:13:49.190 ,2,0,0.,4.8,0.,4.8,0.,4.8,0.,4.8
1979-07-21 15:13:53.990 ,2,0,0.,4.8,0.,4.8,0.,4.8,0.,4.8
1979-07-21 15:13:58.790 ,2,0,1.,4.8,0.,4.8,0.,4.8,0.,4.8
1979-07-21 15:14:03.590 ,2,0,1.,4.8,0.,4.8,0.,4.8,0.,4.8
1979-07-21 15:14:08.390 ,2,0,0.,4.8,0.,4.8,1.,4.8,0.,4.8
1979-07-21 15:14:13.190 ,2,0,0.,4.8,0.,4.8,0.,4.8,0.,4.8
1979-07-21 15:14:17.990 ,2,0,0.,4.8,0.,4.8,0.,4.8,0.,4.8
1979-07-21 15:14:22.790 ,3,0,0.,4.8,0.,4.8,0.,4.8,0.,4.8
1979-07-21 15:14:27.590 ,3,0,1.,4.8,0.,4.8,0.,4.8,0.,4.8
1979-07-21 15:14:32.390 ,3,0,0.,4.8,0.,4.8,2.,4.8,0.,4.8
1979-07-21 15:14:37.190 ,3,0,0.,4.8,0.,4.8,0.,4.8,0.,4.8
1979-07-21 15:14:41.990 ,3,0,2.,4.8,0.,4.8,0.,4.8,0.,4.8
1979-07-21 15:14:46.790 ,3,0,0.,4.8,0.,4.8,0.,4.8,0.,4.8
1979-07-21 15:14:51.590 ,3,0,0.,4.8,0.,4.8,0.,4.8,0.,4.8
1979-07-21 15:14:56.390 ,3,0,0.,4.8,0.,4.8,1.,4.8,0.,4.8
1979-07-21 15:15:01.190 ,3,0,0.,4.8,0.,4.8,0.,4.8,0.,4.8
1979-07-21 15:15:05.990 ,3,0,0.,4.8,0.,4.8,0.,4.8,0.,4.8
1979-07-21 15:15:10.790 ,4,0,0.,4.8,0.,4.8,0.,4.8,0.,4.8
1979-07-21 15:15:15.590 ,4,0,0.,4.8,0.,4.8,0.,4.8,0.,4.8
1979-07-21 15:15:20.390 ,4,0,0.,4.8,0.,4.8,0.,4.8,0.,4.8
1979-07-21 15:15:25.190 ,4,0,1.,4.8,0.,4.8,0.,4.8,0.,4.8
1979-07-21 15:15:29.990 ,4,0,0.,4.8,0.,4.8,1.,4.8,0.,4.8
1979-07-21 15:15:34.790 ,4,0,0.,4.8,0.,4.8,1.,4.8,0.,4.8
1979-07-21 15:15:39.590 ,4,0,0.,4.8,0.,4.8,0.,4.8,0.,4.8
1979-07-21 15:15:44.390 ,4,0,0.,4.8,0.,4.8,0.,4.8,0.,4.8
1979-07-21 15:15:49.190 ,4,0,0.,4.8,0.,4.8,0.,4.8,0.,4.8
1979-07-21 15:15:53.990 ,4,0,0.,4.8,0.,4.8,0.,4.8,0.,4.8
1979-07-21 15:15:58.790 ,5,0,0.,4.8,0.,4.8,0.,4.8,0.,4.8
1979-07-21 15:16:03.590 ,5,0,0.,4.8,0.,4.8,0.,4.8,0.,4.8
1979-07-21 15:16:08.390 ,5,0,0.,4.8,0.,4.8,0.,4.8,0.,4.8
1979-07-21 15:16:13.190 ,5,0,0.,4.8,0.,4.8,1.,4.8,0.,4.8
1979-07-21 15:16:17.990 ,5,0,0.,4.8,0.,4.8,0.,4.8,0.,4.8
1979-07-21 15:16:22.790 ,5,0,1.,4.8,0.,4.8,0.,4.8,0.,4.8
1979-07-21 15:16:27.590 ,5,0,1.,4.8,0.,4.8,0.,4.8,0.,4.8
1979-07-21 15:16:32.390 ,5,0,0.,4.8,0.,4.8,0.,4.8,0.,4.8
1979-07-21 15:16:37.190 ,5,0,0.,4.8,0.,4.8,0.,4.8,0.,4.8
1979-07-21 15:16:41.990 ,5,0,0.,4.8,0.,4.8,0.,4.8,0.,4.8
1979-07-21 15:16:46.790 ,6,0,0.,4.8,0.,4.8,0.,4.8,0.,4.8
1979-07-21 15:16:51.590 ,6,0,0.,4.8,0.,4.8,2.,4.8,0.,4.8
1979-07-21 15:16:56.390 ,6,0,1.,4.8,0.,4.8,0.,4.8,0.,4.8
1979-07-21 15:17:01.190 ,6,0,0.,4.8,0.,4.8,0.,4.8,0.,4.8
1979-07-21 15:17:05.990 ,6,0,0.,4.8,0.,4.8,0.,4.8,0.,4.8
1979-07-21 15:17:10.790 ,6,0,1.,4.8,0.,4.8,0.,4.8,0.,4.8
1979-07-21 15:17:15.590 ,6,0,0.,4.8,0.,4.8,0.,4.8,0.,4.8
1979-07-21 15:17:20.390 ,6,0,0.,4.8,0.,4.8,0.,4.8,0.,4.8
1979-07-21 15:17:25.190 ,6,0,2.,4.8,0.,4.8,0.,4.8,0.,4.8
1979-07-21 15:17:29.990 ,6,0,1.,4.8,0.,4.8,0.,4.8,0.,4.8
1979-07-21 15:17:34.790 ,7,0,0.,4.8,0.,4.8,0.,4.8,0.,4.8
1979-07-21 15:17:39.590 ,7,0,0.,4.8,0.,4.8,0.,4.8,0.,4.8
1979-07-21 15:17:44.390 ,7,0,0.,4.8,0.,4.8,0.,4.8,0.,4.8
1979-07-21 15:17:49.190 ,7,0,0.,4.8,0.,4.8,0.,4.8,0.,4.8
1979-07-21 15:17:53.990 ,7,0,1.,4.8,0.,4.8,0.,4.8,0.,4.8
1979-07-21 15:17:58.790 ,7,0,0.,4.8,0.,4.8,0.,4.8,0.,4.8
1979-07-21 15:18:03.590 ,7,0,0.,4.8,0.,4.8,0.,4.8,0.,4.8
1979-07-21 15:18:08.390 ,7,0,0.,4.8,0.,4.8,0.,4.8,0.,4.8
1979-07-21 15:18:13.190 ,7,0,0.,4.8,0.,4.8,0.,4.8,0.,4.8
1979-07-21 15:18:17.990 ,7,0,1.,4.8,0.,4.8,0.,4.8,0.,4.8
1979-07-21 15:18:22.790 ,7,0,0.,4.8,0.,4.8,1.,4.8,0.,4.8
1979-07-21 15:18:27.590 ,7,0,0.,4.8,0.,4.8,0.,4.8,0.,4.8
1979-07-21 15:18:32.390 ,7,0,0.,4.8,0.,4.8,0.,4.8,0.,4.8
1979-07-21 15:18:37.190 ,7,0,1.,4.8,0.,4.8,0.,4.8,0.,4.8
1979-07-21 15:18:41.990 ,7,0,0.,4.8,0.,4.8,0.,4.8,0.,4.8
1979-07-21 15:18:46.790 ,7,0,1.,4.8,0.,4.8,2.,4.8,0.,4.8
1979-07-21 15:18:51.590 ,7,0,0.,4.8,0.,4.8,0.,4.8,0.,4.8
1979-07-21 15:18:56.390 ,7,0,0.,4.8,0.,4.8,0.,4.8,0.,4.8
1979-07-21 15:19:01.190 ,7,0,0.,4.8,0.,4.8,0.,4.8,0.,4.8
1979-07-21 15:19:05.990 ,7,0,0.,4.8,0.,4.8,0.,4.8,0.,4.8
1979-07-21 15:19:10.790 ,6,0,0.,4.8,0.,4.8,0.,4.8,0.,4.8
1979-07-21 15:19:15.590 ,6,0,0.,4.8,0.,4.8,0.,4.8,0.,4.8
1979-07-21 15:19:20.390 ,6,0,0.,4.8,0.,4.8,0.,4.8,0.,4.8
1979-07-21 15:19:25.190 ,6,0,0.,4.8,0.,4.8,0.,4.8,0.,4.8
1979-07-21 15:19:29.990 ,6,0,0.,4.8,0.,4.8,0.,4.8,0.,4.8
1979-07-21 15:19:34.790 ,6,0,0.,4.8,0.,4.8,1.,4.8,0.,4.8
1979-07-21 15:19:39.590 ,6,0,1.,4.8,0.,4.8,1.,4.8,0.,4.8
1979-07-21 15:19:44.390 ,6,0,0.,4.8,0.,4.8,0.,4.8,0.,4.8
1979-07-21 15:19:49.190 ,6,0,0.,4.8,0.,4.8,0.,4.8,0.,4.8
1979-07-21 15:19:53.990 ,6,0,1.,4.8,0.,4.8,1.,4.8,0.,4.8
1979-07-21 15:19:58.790 ,5,0,1.,4.8,0.,4.8,0.,4.8,0.,4.8
1979-07-21 15:20:03.590 ,5,0,0.,4.8,0.,4.8,0.,4.8,0.,4.8
1979-07-21 15:20:08.390 ,5,0,0.,4.8,0.,4.8,0.,4.8,0.,4.8
1979-07-21 15:20:13.190 ,5,0,0.,4.8,0.,4.8,0.,4.8,0.,4.8
1979-07-21 15:20:17.990 ,5,0,0.,4.8,0.,4.8,0.,4.8,0.,4.8
1979-07-21 15:20:22.790 ,5,0,0.,4.8,0.,4.8,1.,4.8,0.,4.8
1979-07-21 15:20:27.590 ,5,0,0.,4.8,0.,4.8,0.,4.8,0.,4.8
1979-07-21 15:20:32.390 ,5,0,0.,4.8,1.,4.8,0.,4.8,0.,4.8
1979-07-21 15:20:37.190 ,5,0,0.,4.8,0.,4.8,0.,4.8,0.,4.8
1979-07-21 15:20:41.990 ,5,0,1.,4.8,0.,4.8,0.,4.8,0.,4.8
1979-07-21 15:20:46.790 ,4,0,0.,4.8,0.,4.8,0.,4.8,0.,4.8
1979-07-21 15:20:51.590 ,4,0,0.,4.8,1.,4.8,0.,4.8,0.,4.8
1979-07-21 15:20:56.390 ,4,0,0.,4.8,1.,4.8,0.,4.8,0.,4.8
1979-07-21 15:21:01.190 ,4,0,0.,4.8,0.,4.8,0.,4.8,0.,4.8
1979-07-21 15:21:05.990 ,4,0,0.,4.8,0.,4.8,0.,4.8,0.,4.8
1979-07-21 15:21:10.790 ,4,0,0.,4.8,0.,4.8,0.,4.8,0.,4.8
1979-07-21 15:21:15.590 ,4,0,0.,4.8,0.,4.8,0.,4.8,0.,4.8
1979-07-21 15:21:20.390 ,4,0,0.,4.8,0.,4.8,0.,4.8,0.,4.8
1979-07-21 15:21:25.190 ,4,0,1.,4.8,0.,4.8,0.,4.8,0.,4.8
1979-07-21 15:21:29.990 ,4,0,1.,4.8,0.,4.8,0.,4.8,0.,4.8
1979-07-21 15:21:34.790 ,3,0,1.,4.8,0.,4.8,0.,4.8,0.,4.8
1979-07-21 15:21:39.590 ,3,0,0.,4.8,0.,4.8,0.,4.8,0.,4.8
1979-07-21 15:21:44.390 ,3,0,0.,4.8,0.,4.8,0.,4.8,0.,4.8
1979-07-21 15:21:49.190 ,3,0,0.,4.8,0.,4.8,1.,4.8,0.,4.8
1979-07-21 15:21:53.990 ,3,0,0.,4.8,0.,4.8,0.,4.8,0.,4.8
1979-07-21 15:21:58.790 ,3,0,1.,4.8,0.,4.8,0.,4.8,0.,4.8
1979-07-21 15:22:03.590 ,3,0,0.,4.8,0.,4.8,0.,4.8,0.,4.8
1979-07-21 15:22:08.390 ,3,0,0.,4.8,0.,4.8,0.,4.8,0.,4.8
1979-07-21 15:22:13.190 ,3,0,0.,4.8,0.,4.8,0.,4.8,0.,4.8
1979-07-21 15:22:17.990 ,3,0,0.,4.8,0.,4.8,1.,4.8,0.,4.8
1979-07-21 15:22:22.790 ,2,0,0.,4.8,0.,4.8,0.,4.8,0.,4.8
1979-07-21 15:22:27.590 ,2,0,1.,4.8,0.,4.8,0.,4.8,0.,4.8
1979-07-21 15:22:32.390 ,2,0,0.,4.8,0.,4.8,0.,4.8,0.,4.8
1979-07-21 15:22:37.190 ,2,0,0.,4.8,0.,4.8,0.,4.8,0.,4.8
1979-07-21 15:22:41.990 ,2,0,0.,4.8,0.,4.8,0.,4.8,0.,4.8
1979-07-21 15:22:46.790 ,2,0,1.,4.8,0.,4.8,1.,4.8,0.,4.8
1979-07-21 15:22:51.590 ,2,0,1.,4.8,0.,4.8,0.,4.8,0.,4.8
1979-07-21 15:22:56.390 ,2,0,0.,4.8,0.,4.8,0.,4.8,0.,4.8
1979-07-21 15:23:01.190 ,2,0,0.,4.8,0.,4.8,0.,4.8,0.,4.8
1979-07-21 15:23:05.990 ,2,0,0.,4.8,0.,4.8,0.,4.8,0.,4.8
1979-07-21 15:23:10.790 ,1,0,0.,4.8,0.,4.8,0.,4.8,0.,4.8
1979-07-21 15:23:15.590 ,1,0,0.,4.8,0.,4.8,0.,4.8,0.,4.8
1979-07-21 15:23:20.390 ,1,0,0.,4.8,0.,4.8,0.,4.8,0.,4.8
1979-07-21 15:23:25.190 ,1,0,0.,4.8,0.,4.8,0.,4.8,0.,4.8
1979-07-21 15:23:29.990 ,1,0,0.,4.8,0.,4.8,0.,4.8,0.,4.8
1979-07-21 15:23:34.790 ,1,0,0.,4.8,0.,4.8,0.,4.8,0.,4.8
1979-07-21 15:23:39.590 ,1,0,0.,4.8,0.,4.8,0.,4.8,0.,4.8
1979-07-21 15:23:44.390 ,1,0,0.,4.8,0.,4.8,1.,4.8,0.,4.8
1979-07-21 15:23:49.190 ,1,0,0.,4.8,0.,4.8,0.,4.8,0.,4.8
1979-07-21 15:23:53.990 ,1,0,0.,4.8,0.,4.8,0.,4.8,0.,4.8
1979-07-21 15:23:58.790 ,0,0,0.,4.8,0.,4.8,0.,4.8,0.,4.8
1979-07-21 15:24:03.590 ,0,0,0.,4.8,0.,4.8,0.,4.8,0.,4.8
1979-07-21 15:24:08.390 ,0,0,1.,4.8,0.,4.8,0.,4.8,0.,4.8
1979-07-21 15:24:13.190 ,0,0,0.,4.8,0.,4.8,1.,4.8,0.,4.8
1979-07-21 15:24:17.990 ,0,0,1.,4.8,0.,4.8,0.,4.8,0.,4.8
1979-07-21 15:24:22.790 ,0,0,0.,4.8,0.,4.8,0.,4.8,0.,4.8
1979-07-21 15:24:27.590 ,0,0,1.,4.8,0.,4.8,0.,4.8,0.,4.8
1979-07-21 15:24:32.390 ,0,0,1.,4.8,0.,4.8,0.,4.8,0.,4.8
1979-07-21 15:24:37.190 ,0,0,0.,4.8,0.,4.8,0.,4.8,0.,4.8
1979-07-21 15:24:41.990 ,0,0,0.,4.8,0.,4.8,0.,4.8,0.,4.8
1979-07-21 15:24:46.790 ,0,0,0.,4.8,0.,4.8,0.,4.8,0.,4.8
1979-07-21 15:24:51.590 ,0,0,0.,4.8,0.,4.8,0.,4.8,0.,4.8
1979-07-21 15:24:56.390 ,0,0,0.,4.8,0.,4.8,0.,4.8,0.,4.8
1979-07-21 15:25:01.190 ,0,0,1.,4.8,0.,4.8,0.,4.8,0.,4.8
1979-07-21 15:25:05.990 ,0,0,0.,4.8,0.,4.8,1.,4.8,0.,4.8
1979-07-21 15:25:10.790 ,0,0,0.,4.8,0.,4.8,0.,4.8,0.,4.8
1979-07-21 15:25:15.590 ,0,0,0.,4.8,0.,4.8,0.,4.8,0.,4.8
1979-07-21 15:25:20.390 ,0,0,0.,4.8,0.,4.8,0.,4.8,0.,4.8
1979-07-21 15:25:25.190 ,0,0,0.,4.8,0.,4.8,0.,4.8,0.,4.8
1979-07-21 15:25:29.990 ,0,0,0.,4.8,0.,4.8,0.,4.8,0.,4.8
1979-07-21 15:25:34.790 ,1,0,0.,4.8,0.,4.8,0.,4.8,0.,4.8
1979-07-21 15:25:39.590 ,1,0,0.,4.8,0.,4.8,0.,4.8,0.,4.8
1979-07-21 15:25:44.390 ,1,0,0.,4.8,0.,4.8,0.,4.8,0.,4.8
1979-07-21 15:25:49.190 ,1,0,0.,4.8,0.,4.8,0.,4.8,0.,4.8
1979-07-21 15:25:53.990 ,1,0,1.,4.8,0.,4.8,1.,4.8,0.,4.8
1979-07-21 15:25:58.790 ,1,0,0.,4.8,0.,4.8,0.,4.8,0.,4.8
1979-07-21 15:26:03.590 ,1,0,1.,4.8,0.,4.8,0.,4.8,0.,4.8
1979-07-21 15:26:08.390 ,1,0,0.,4.8,0.,4.8,0.,4.8,0.,4.8
1979-07-21 15:26:13.190 ,1,0,1.,4.8,0.,4.8,0.,4.8,0.,4.8
1979-07-21 15:26:17.990 ,1,0,0.,4.8,0.,4.8,0.,4.8,0.,4.8
1979-07-21 15:26:22.790 ,2,0,0.,4.8,0.,4.8,0.,4.8,0.,4.8
1979-07-21 15:26:27.590 ,2,0,0.,4.8,0.,4.8,1.,4.8,0.,4.8
1979-07-21 15:26:32.390 ,2,0,0.,4.8,0.,4.8,0.,4.8,0.,4.8
1979-07-21 15:26:37.190 ,2,0,1.,4.8,1.,4.8,0.,4.8,0.,4.8
1979-07-21 15:26:41.990 ,2,0,0.,4.8,0.,4.8,0.,4.8,0.,4.8
1979-07-21 15:26:46.790 ,2,0,0.,4.8,0.,4.8,0.,4.8,0.,4.8
1979-07-21 15:26:51.590 ,2,0,1.,4.8,0.,4.8,1.,4.8,0.,4.8
1979-07-21 15:26:56.390 ,2,0,0.,4.8,0.,4.8,0.,4.8,0.,4.8
1979-07-21 15:27:01.190 ,2,0,0.,4.8,0.,4.8,0.,4.8,0.,4.8
1979-07-21 15:27:05.990 ,2,0,0.,4.8,0.,4.8,0.,4.8,0.,4.8
1979-07-21 15:27:10.790 ,3,0,0.,4.8,0.,4.8,0.,4.8,0.,4.8
1979-07-21 15:27:15.590 ,3,0,0.,4.8,0.,4.8,0.,4.8,0.,4.8
1979-07-21 15:27:20.390 ,3,0,2.,4.8,0.,4.8,0.,4.8,0.,4.8
1979-07-21 15:27:25.190 ,3,0,0.,4.8,0.,4.8,0.,4.8,0.,4.8
1979-07-21 15:27:29.990 ,3,0,1.,4.8,0.,4.8,0.,4.8,0.,4.8
1979-07-21 15:27:34.790 ,3,0,1.,4.8,0.,4.8,0.,4.8,0.,4.8
1979-07-21 15:27:39.590 ,3,0,0.,4.8,0.,4.8,0.,4.8,0.,4.8
1979-07-21 15:27:44.390 ,3,0,0.,4.8,0.,4.8,0.,4.8,0.,4.8
1979-07-21 15:27:49.190 ,3,0,0.,4.8,0.,4.8,1.,4.8,0.,4.8
1979-07-21 15:27:53.990 ,3,0,0.,4.8,0.,4.8,1.,4.8,0.,4.8
1979-07-21 15:27:58.790 ,4,0,1.,4.8,1.,4.8,0.,4.8,0.,4.8
1979-07-21 15:28:03.590 ,4,0,0.,4.8,0.,4.8,0.,4.8,0.,4.8
1979-07-21 15:28:08.390 ,4,0,0.,4.8,0.,4.8,0.,4.8,0.,4.8
1979-07-21 15:28:13.190 ,4,0,0.,4.8,0.,4.8,0.,4.8,0.,4.8
1979-07-21 15:28:17.990 ,4,0,0.,4.8,0.,4.8,1.,4.8,0.,4.8
1979-07-21 15:28:22.790 ,4,0,0.,4.8,0.,4.8,0.,4.8,0.,4.8
1979-07-21 15:28:27.590 ,4,0,0.,4.8,0.,4.8,0.,4.8,0.,4.8
1979-07-21 15:28:32.390 ,4,0,1.,4.8,0.,4.8,0.,4.8,0.,4.8
1979-07-21 15:28:37.190 ,4,0,0.,4.8,0.,4.8,1.,4.8,0.,4.8
1979-07-21 15:28:41.990 ,4,0,0.,4.8,0.,4.8,0.,4.8,0.,4.8
1979-07-21 15:28:46.790 ,5,0,0.,4.8,0.,4.8,0.,4.8,0.,4.8
1979-07-21 15:28:51.590 ,5,0,0.,4.8,0.,4.8,0.,4.8,0.,4.8
1979-07-21 15:28:56.390 ,5,0,0.,4.8,0.,4.8,0.,4.8,0.,4.8
1979-07-21 15:29:01.190 ,5,0,0.,4.8,0.,4.8,0.,4.8,0.,4.8
1979-07-21 15:29:05.990 ,5,0,0.,4.8,0.,4.8,1.,4.8,0.,4.8
1979-07-21 15:29:10.790 ,5,0,0.,4.8,0.,4.8,0.,4.8,0.,4.8
1979-07-21 15:29:15.590 ,5,0,1.,4.8,0.,4.8,0.,4.8,0.,4.8
1979-07-21 15:29:20.390 ,5,0,1.,4.8,1.,4.8,0.,4.8,0.,4.8
1979-07-21 15:29:25.190 ,5,0,0.,4.8,0.,4.8,0.,4.8,0.,4.8
1979-07-21 15:29:29.990 ,5,0,1.,4.8,0.,4.8,0.,4.8,0.,4.8
1979-07-21 15:29:34.790 ,6,0,0.,4.8,0.,4.8,1.,4.8,0.,4.8
1979-07-21 15:29:39.590 ,6,0,0.,4.8,0.,4.8,0.,4.8,0.,4.8
1979-07-21 15:29:44.390 ,6,0,0.,4.8,0.,4.8,0.,4.8,0.,4.8
1979-07-21 15:29:49.190 ,6,0,1.,4.8,0.,4.8,0.,4.8,0.,4.8
1979-07-21 15:29:53.990 ,6,0,1.,4.8,0.,4.8,0.,4.8,0.,4.8
1979-07-21 15:29:58.790 ,6,0,1.,4.8,0.,4.8,0.,4.8,0.,4.8
1979-07-21 15:30:03.590 ,6,0,0.,4.8,1.,4.8,0.,4.8,0.,4.8
1979-07-21 15:30:08.390 ,6,0,0.,4.8,0.,4.8,0.,4.8,0.,4.8
1979-07-21 15:30:13.190 ,6,0,0.,4.8,0.,4.8,1.,4.8,0.,4.8
1979-07-21 15:30:17.990 ,6,0,0.,4.8,0.,4.8,0.,4.8,1.,4.8
1979-07-21 15:30:22.790 ,7,0,1.,4.8,0.,4.8,1.,4.8,0.,4.8
1979-07-21 15:30:27.590 ,7,0,0.,4.8,0.,4.8,0.,4.8,0.,4.8
1979-07-21 15:30:32.390 ,7,0,0.,4.8,0.,4.8,0.,4.8,0.,4.8
1979-07-21 15:30:37.190 ,7,0,0.,4.8,0.,4.8,1.,4.8,0.,4.8
1979-07-21 15:30:41.990 ,7,0,0.,4.8,0.,4.8,0.,4.8,0.,4.8
1979-07-21 15:30:46.790 ,7,0,0.,4.8,0.,4.8,1.,4.8,0.,4.8
1979-07-21 15:30:51.590 ,7,0,0.,4.8,0.,4.8,0.,4.8,0.,4.8
1979-07-21 15:30:56.390 ,7,0,0.,4.8,1.,4.8,0.,4.8,0.,4.8
1979-07-21 15:31:01.190 ,7,0,0.,4.8,0.,4.8,0.,4.8,0.,4.8
1979-07-21 15:31:05.990 ,7,0,0.,4.8,0.,4.8,0.,4.8,0.,4.8
1979-07-21 15:31:10.790 ,3,1,0.,4.8,0.,4.8,0.,4.8,0.,4.8
1979-07-21 15:31:15.590 ,3,1,0.,4.8,0.,4.8,1.,4.8,0.,4.8
1979-07-21 15:31:20.390 ,3,1,1.,4.8,0.,4.8,0.,4.8,0.,4.8
1979-07-21 15:31:25.190 ,3,1,0.,4.8,0.,4.8,1.,4.8,0.,4.8
1979-07-21 15:31:29.990 ,3,1,1.,4.8,0.,4.8,0.,4.8,0.,4.8
1979-07-21 15:31:34.790 ,0,1,0.,4.8,0.,4.8,0.,4.8,0.,4.8
1979-07-21 15:31:39.590 ,0,1,0.,4.8,0.,4.8,0.,4.8,0.,4.8
1979-07-21 15:31:44.390 ,0,1,0.,4.8,0.,4.8,0.,4.8,0.,4.8
1979-07-21 15:31:49.190 ,0,1,1.,4.8,0.,4.8,0.,4.8,0.,4.8
1979-07-21 15:31:53.990 ,0,1,0.,4.8,0.,4.8,0.,4.8,0.,4.8
1979-07-21 15:31:58.790 ,4,1,1.,4.8,0.,4.8,0.,4.8,0.,4.8
1979-07-21 15:32:03.590 ,4,1,0.,4.8,0.,4.8,1.,4.8,0.,4.8
1979-07-21 15:32:08.390 ,4,1,0.,4.8,0.,4.8,0.,4.8,0.,4.8
1979-07-21 15:32:13.190 ,4,1,0.,4.8,0.,4.8,1.,4.8,0.,4.8
1979-07-21 15:32:17.990 ,4,1,1.,4.8,0.,4.8,0.,4.8,0.,4.8
1979-07-21 15:32:22.790 ,7,1,0.,4.8,0.,4.8,0.,4.8,0.,4.8
1979-07-21 15:32:27.590 ,7,1,0.,4.8,0.,4.8,0.,4.8,0.,4.8
1979-07-21 15:32:32.390 ,7,1,0.,4.8,0.,4.8,0.,4.8,0.,4.8
1979-07-21 15:32:37.190 ,7,1,0.,4.8,0.,4.8,1.,4.8,0.,4.8
1979-07-21 15:32:41.990 ,7,1,0.,4.8,0.,4.8,0.,4.8,0.,4.8
1979-07-21 15:32:46.790 ,3,1,0.,4.8,0.,4.8,0.,4.8,0.,4.8
1979-07-21 15:32:51.590 ,3,1,1.,4.8,0.,4.8,0.,4.8,0.,4.8
1979-07-21 15:32:56.390 ,3,1,0.,4.8,0.,4.8,0.,4.8,0.,4.8
1979-07-21 15:33:01.190 ,3,1,0.,4.8,0.,4.8,0.,4.8,0.,4.8
1979-07-21 15:33:05.990 ,3,1,1.,4.8,0.,4.8,0.,4.8,0.,4.8
1979-07-21 15:33:10.790 ,0,1,0.,4.8,0.,4.8,0.,4.8,0.,4.8
1979-07-21 15:33:15.590 ,0,1,1.,4.8,0.,4.8,0.,4.8,0.,4.8